Find Local Weather

World > North America > United States > Virginia

Virginia Beach, Virginia Regional Weather

Lat: 36.85N, Lon: 75.98W
Wx Zone: VAZ098
Feedback
Expires:201812111400;;631325
ASUS41 KAKQ 111314
RWRAKQ

REGIONAL WEATHER ROUNDUP
NATIONAL WEATHER SERVICE WAKEFIELD VA
800 AM EST TUE DEC 11 2018

Note: "fair" indicates few or no clouds below 12,000 feet with no
significant weather and/or obstructions to visibility. * = Denotes
station may not report precipitation (e.g., rain,snow,etc.),
thunder or fog.


VAZ088>098-111400-
SOUTHEAST VIRGINIA
  
CITY           SKY/WX    TMP DP  RH WIND       PRES   REMARKS
NORFOLK        FAIR      39  36  89 N13       30.12S FOG              
VIRGINIA BEACH MOCLDY    38  32  79 N9        30.12R                  
NORFOLK NAVAL  FAIR      36  31  82 N12       30.15R                  
WEST POINT*    FAIR      28  26  93 NW5       30.19S                  
SALUDA*        FAIR      32  32 100 NW5       30.16R                  
NEWPORT NEWS   FAIR      34  28  79 N8        30.15S HAZE             
LANGLEY AFB    PTCLDY    34  30  86 NW8       30.14S HAZE             
FORT EUSTIS    FAIR      34  28  78 N6        30.14R                  
WILLIAMSBURG*  FAIR      30  28  93 CALM      30.17S                  
HR EXEC AP*    NOT AVBL                                               
FRANKLIN*      FAIR      31  30  94 NW7       30.17R                  
US460-WAKEFLD  FAIR      30  25  81 N5        30.17R HAZE             
$$


SKY/WX - Weather  TMP - Temperature  DP - Dew Point  RH - Relative Humidity
WIND - Wind Direction/Speed PRES - Barometric Pressure